Tracking 20719 objects as of 25-May-2020
HD Live streaming from Space Station
objects crossing your sky now

BEIDOU 3M17

Track BEIDOU 3M17 now!
BEIDOU 3M17 is classified as:


NORAD ID: 43706
Int'l Code: 2018-093A
Perigee: 21,510.2 km
Apogee: 21,560.1 km
Inclination: 54.7 °
Period: 773.2 minutes
Semi major axis: 27906 km
RCS: Unknown
Launch date: November 18, 2018
Source: People's Republic of China (PRC)
Launch site: Xichang Space Center, China (XSC)
aabbcc
Your satellite tracking list
Your tracking list is empty




NASA's NSSDC Master Catalog

Two Line Element Set (TLE):
1 43706U 18093A   20145.39111472  .00000004  00000-0  00000+0 0  9994
2 43706  54.6593 257.7928 0008941 261.0427 102.5162  1.86231688 10289
Source of the keplerian elements: AFSPC